Tracking 20370 objects as of 19-Feb-2020
HD Live streaming from Space Station
objects crossing your sky now
Track the group of recently launched Starlink satellites

TITAN 3C TRANSTAGE DEB

Track TITAN 3C TRANSTAGE DEB now!
10-day predictions


NORAD ID: 2799
Int'l Code: 1965-082KX
Perigee: 650.6 km
Apogee: 703.5 km
Inclination: 32.1 °
Period: 98.1 minutes
Semi major axis: 7048 km
RCS: 0.0572 m2 (small)
Launch date: October 15, 1965
Source: United States (US)
Launch site: AIR FORCE EASTERN TEST RANGE (AFETR)

Note: This is SATELLITE DEBRIS
aabbcc
Your satellite tracking list
Your tracking list is empty




NASA's NSSDC Master Catalog

Two Line Element Set (TLE):
1  2799U 65082KX  20049.31265601 +.00000106 +00000-0 +11196-4 0  9996
2  2799 032.0540 140.1188 0037489 016.6343 026.8267 14.67234921816049
Source of the keplerian elements: AFSPC